Regional Weather Roundup
Issued by NWS

Home | Current Version | Previous Version | Graphics & Text | Print | Product List | Glossary On
Versions: 1 2 3 4 5 6 7 8 9 10 11 12 13 14 15 16 17 18 19 20 21 22 23 24 25 26 27 28 29 30 31 32 33 34 35 36 37 38 39 40 41 42 43 44 45 46 47 48 49 50
000
ASUS44 KMEG 272000
RWRTN
TENNESSEE HOURLY STATE WEATHER ROUNDUP
NATIONAL WEATHER SERVICE MEMPHIS TN
300 PM CDT TUE SEP 27 2016

TNZ002-004-019-021-049-052-054-088>092-272100-
WEST TENNESSEE

CITY           SKY/WX    TMP DP  RH WIND       PRES   REMARKS
MEMPHIS INTL   MOSUNNY   80  42  25 VRB7      29.98F
NWS MEMPHIS      N/A     78 N/A N/A MISG        N/A
JACKSON        SUNNY    N/A N/A N/A N5        29.98F
DYERSBURG      SUNNY    N/A N/A N/A MISG        N/A
PARIS          SUNNY     75  43  31 W8        29.98F
$$

TNZ008-025-027-028-033-062-065-066-272100-
NORTH MIDDLE TENNESSEE

CITY           SKY/WX    TMP DP  RH WIND       PRES   REMARKS
NASHVILLE      SUNNY     78  37  22 MISG      29.96F
CLARKSVILLE    SUNNY     75  40  28 VRB5      29.96F
SMYRNA         SUNNY     76  41  28 VRB3      29.97F
COOKEVILLE     SUNNY     77  48  36 VRB6      29.95F
CROSSVILLE     SUNNY     77  41  27 NE6       29.97F
$$

TNZ061-075-076-078-094-096-097-272100-
SOUTH MIDDLE TENNESSEE

CITY           SKY/WX    TMP DP  RH WIND       PRES   REMARKS
$$

TNZ017-018-042-046-047-272100-
NORTHEAST TENNESSEE

CITY           SKY/WX    TMP DP  RH WIND       PRES   REMARKS
TRI CITIES     PTSUNNY   75  64  68 W5        29.94F
$$

TNZ012-013-036-069-073-074-272100-
CENTRAL EAST TENNESSEE

CITY           SKY/WX    TMP DP  RH WIND       PRES   REMARKS
KNOXVILLE      MOSUNNY   78  62  57 W8        29.91F
OAK RIDGE      SUNNY     79  54  41 CALM      29.93F
GATLINBURG     CLOUDY    79  63  57 NW6       29.91F
$$

TNZ083-085-099-272100-
SOUTHEAST TENNESSEE

CITY           SKY/WX    TMP DP  RH WIND       PRES   REMARKS
CHATTANOOGA    PTSUNNY   82  65  56 VRB3      29.91F
$$

SKY/WX REPORTED AS FAIR MEANS FEW OR NO CLOUDS BELOW
12 THOUSAND FEET.





USA.gov is the U.S. government's official web portal to all federal, state and local government web resources and services.